Time,TemperatureF,DewpointF,PressureIn,WindDirection,WindDirectionDegrees,WindSpeedMPH,WindSpeedGustMPH,Humidity,HourlyPrecipIn,Conditions,Clouds,dailyrainin,SolarRadiationWatts/m^2,SoftwareType,DateUTC
2013-03-13 00:04:00,50.2,45.0,30.12,East,92,0.0,3.0,82,0.00,,,0.00,0.0,meteohub,2013-03-13 10:04:00,
2013-03-13 00:09:00,50.2,44.6,30.12,East,86,2.0,3.0,81,0.00,,,0.00,0.0,meteohub,2013-03-13 10:09:00,
2013-03-13 00:14:00,50.2,44.2,30.12,East,80,1.0,3.0,80,0.00,,,0.00,0.0,meteohub,2013-03-13 10:14:00,
2013-03-13 00:19:00,49.8,44.6,30.12,East,101,2.0,3.0,82,0.00,,,0.00,0.0,meteohub,2013-03-13 10:19:00,
2013-03-13 00:24:00,49.6,44.8,30.12,East,97,1.0,3.0,83,0.00,,,0.00,0.0,meteohub,2013-03-13 10:24:00,
2013-03-13 00:29:00,49.5,44.2,30.12,East,98,2.0,3.0,82,0.00,,,0.00,0.0,meteohub,2013-03-13 10:29:00,
2013-03-13 00:34:00,49.6,44.4,30.12,ENE,78,0.0,3.0,82,0.00,,,0.00,0.0,meteohub,2013-03-13 10:34:00,
2013-03-13 00:39:00,49.6,44.4,30.13,East,92,2.0,3.0,82,0.00,,,0.00,0.0,meteohub,2013-03-13 10:39:00,
2013-03-13 00:44:00,49.5,44.8,30.13,East,88,2.0,3.0,84,0.00,,,0.00,0.0,meteohub,2013-03-13 10:44:00,
2013-03-13 00:49:00,49.3,44.6,30.12,ENE,75,3.0,3.0,84,0.00,,,0.00,0.0,meteohub,2013-03-13 10:49:00,
2013-03-13 00:54:00,49.8,44.8,30.12,East,94,2.0,5.0,83,0.00,,,0.00,0.0,meteohub,2013-03-13 10:54:00,
2013-03-13 00:59:00,50.0,44.4,30.12,East,82,2.0,5.0,81,0.00,,,0.00,0.0,meteohub,2013-03-13 10:59:00,
2013-03-13 01:04:00,50.7,44.1,30.11,ESE,107,3.0,5.0,78,0.00,,,0.00,0.0,meteohub,2013-03-13 11:04:00,
2013-03-13 01:09:00,51.3,44.6,30.11,East,82,2.0,5.0,78,0.00,,,0.00,0.0,meteohub,2013-03-13 11:09:00,
2013-03-13 01:14:00,51.4,44.4,30.11,East,97,2.0,6.0,77,0.00,,,0.00,0.0,meteohub,2013-03-13 11:14:00,
2013-03-13 01:19:00,51.3,44.6,30.11,East,89,2.0,6.0,78,0.00,,,0.00,0.0,meteohub,2013-03-13 11:19:00,
2013-03-13 01:24:00,50.5,44.2,30.11,ENE,73,2.0,6.0,79,0.00,,,0.00,0.0,meteohub,2013-03-13 11:24:00,
2013-03-13 01:29:00,50.2,44.6,30.11,ESE,107,2.0,5.0,81,0.00,,,0.00,0.0,meteohub,2013-03-13 11:29:00,
2013-03-13 01:34:00,49.5,44.6,30.11,ENE,78,3.0,5.0,83,0.00,,,0.00,0.0,meteohub,2013-03-13 11:34:00,
2013-03-13 01:39:00,49.3,44.6,30.10,East,90,2.0,4.0,84,0.00,,,0.00,0.0,meteohub,2013-03-13 11:39:00,
2013-03-13 01:44:00,48.9,44.2,30.10,ENE,76,2.0,5.0,84,0.00,,,0.00,0.0,meteohub,2013-03-13 11:44:00,
2013-03-13 01:49:00,48.9,44.2,30.10,East,80,3.0,5.0,84,0.00,,,0.00,0.0,meteohub,2013-03-13 11:49:00,
2013-03-13 01:54:00,49.6,44.4,30.10,East,81,3.0,5.0,82,0.00,,,0.00,0.0,meteohub,2013-03-13 11:54:00,
2013-03-13 01:59:00,50.2,44.6,30.09,East,90,2.0,5.0,81,0.00,,,0.00,0.0,meteohub,2013-03-13 11:59:00,
2013-03-13 02:04:00,50.2,44.6,30.09,ENE,76,4.0,5.0,81,0.00,,,0.00,0.0,meteohub,2013-03-13 12:04:00,
2013-03-13 02:09:00,49.8,44.6,30.09,East,96,2.0,5.0,82,0.00,,,0.00,0.0,meteohub,2013-03-13 12:09:00,
2013-03-13 02:14:00,49.6,44.4,30.09,East,86,3.0,5.0,82,0.00,,,0.00,0.0,meteohub,2013-03-13 12:14:00,
2013-03-13 02:19:00,50.4,44.8,30.09,ENE,78,3.0,5.0,81,0.00,,,0.00,0.0,meteohub,2013-03-13 12:19:00,
2013-03-13 02:24:00,51.1,44.8,30.09,ENE,71,5.0,6.0,79,0.00,,,0.00,0.0,meteohub,2013-03-13 12:24:00,
2013-03-13 02:29:00,51.3,44.6,30.08,East,95,2.0,6.0,78,0.00,,,0.00,0.0,meteohub,2013-03-13 12:29:00,
2013-03-13 02:34:00,51.1,44.8,30.08,East,83,2.0,7.0,79,0.00,,,0.00,0.0,meteohub,2013-03-13 12:34:00,
2013-03-13 02:39:00,52.0,44.6,30.08,ENE,69,5.0,7.0,76,0.00,,,0.00,0.0,meteohub,2013-03-13 12:39:00,
2013-03-13 02:44:00,52.3,45.0,30.08,East,88,5.0,7.0,76,0.00,,,0.00,0.0,meteohub,2013-03-13 12:44:00,
2013-03-13 02:49:00,51.8,44.8,30.08,East,91,2.0,8.0,77,0.00,,,0.00,0.0,meteohub,2013-03-13 12:49:00,
2013-03-13 02:54:00,51.4,44.4,30.08,ESE,110,5.0,8.0,77,0.00,,,0.00,0.0,meteohub,2013-03-13 12:54:00,
2013-03-13 02:59:00,51.6,45.0,30.08,ESE,105,2.0,7.0,78,0.00,,,0.00,0.0,meteohub,2013-03-13 12:59:00,
2013-03-13 03:04:00,51.6,44.6,30.07,East,101,2.0,7.0,77,0.00,,,0.00,0.0,meteohub,2013-03-13 13:04:00,
2013-03-13 03:09:00,51.6,44.6,30.07,East,86,2.0,7.0,77,0.00,,,0.00,0.0,meteohub,2013-03-13 13:09:00,
2013-03-13 03:14:00,51.4,44.8,30.07,East,101,2.0,6.0,78,0.00,,,0.00,0.0,meteohub,2013-03-13 13:14:00,
2013-03-13 03:19:00,50.7,44.4,30.07,ENE,62,4.0,6.0,79,0.00,,,0.00,0.0,meteohub,2013-03-13 13:19:00,
2013-03-13 03:24:00,51.3,44.6,30.07,ENE,70,3.0,6.0,78,0.00,,,0.00,0.0,meteohub,2013-03-13 13:24:00,
2013-03-13 03:29:00,51.6,45.0,30.07,ENE,76,3.0,5.0,78,0.00,,,0.00,0.0,meteohub,2013-03-13 13:29:00,
2013-03-13 03:34:00,50.5,44.6,30.07,East,96,5.0,7.0,80,0.00,,,0.00,0.0,meteohub,2013-03-13 13:34:00,
2013-03-13 03:40:00,50.2,44.2,30.07,ENE,72,4.0,7.0,80,0.00,,,0.00,0.0,meteohub,2013-03-13 13:40:00,
2013-03-13 03:45:00,50.7,44.8,30.07,East,83,5.0,7.0,80,0.00,,,0.00,0.0,meteohub,2013-03-13 13:45:00,
2013-03-13 03:50:00,51.1,44.8,30.07,ESE,114,2.0,6.0,79,0.00,,,0.00,0.0,meteohub,2013-03-13 13:50:00,
2013-03-13 03:55:00,51.1,44.4,30.07,East,81,5.0,5.0,78,0.00,,,0.00,0.0,meteohub,2013-03-13 13:55:00,
2013-03-13 04:00:00,50.9,44.6,30.06,ENE,70,3.0,5.0,79,0.00,,,0.00,0.0,meteohub,2013-03-13 14:00:00,
2013-03-13 04:05:00,51.3,45.0,30.06,East,99,5.0,6.0,79,0.00,,,0.00,0.0,meteohub,2013-03-13 14:05:00,
2013-03-13 04:10:00,51.1,44.8,30.06,East,80,3.0,7.0,79,0.00,,,0.00,0.0,meteohub,2013-03-13 14:10:00,
2013-03-13 04:15:00,50.5,44.6,30.06,East,85,3.0,7.0,80,0.00,,,0.00,0.0,meteohub,2013-03-13 14:15:00,
2013-03-13 04:20:00,50.4,44.4,30.06,East,86,2.0,7.0,80,0.00,,,0.00,0.0,meteohub,2013-03-13 14:20:00,
2013-03-13 04:25:00,50.5,44.2,30.07,East,92,5.0,6.0,79,0.00,,,0.00,0.0,meteohub,2013-03-13 14:25:00,
2013-03-13 04:30:00,50.5,44.2,30.07,East,96,3.0,6.0,79,0.00,,,0.00,0.0,meteohub,2013-03-13 14:30:00,
2013-03-13 04:35:00,50.9,44.2,30.07,ENE,67,4.0,6.0,78,0.00,,,0.00,0.0,meteohub,2013-03-13 14:35:00,
2013-03-13 04:40:00,51.3,44.2,30.07,ENE,78,3.0,6.0,77,0.00,,,0.00,0.0,meteohub,2013-03-13 14:40:00,
2013-03-13 04:45:00,51.1,44.4,30.07,East,86,3.0,7.0,78,0.00,,,0.00,0.0,meteohub,2013-03-13 14:45:00,
2013-03-13 04:50:00,50.9,44.2,30.08,ENE,73,3.0,7.0,78,0.00,,,0.00,0.0,meteohub,2013-03-13 14:50:00,
2013-03-13 04:55:00,50.7,44.1,30.08,East,81,2.0,7.0,78,0.00,,,0.00,0.0,meteohub,2013-03-13 14:55:00,
2013-03-13 05:00:00,50.4,44.1,30.08,East,82,3.0,6.0,79,0.00,,,0.00,0.0,meteohub,2013-03-13 15:00:00,
2013-03-13 05:05:00,50.4,44.4,30.08,East,97,2.0,5.0,80,0.00,,,0.00,0.0,meteohub,2013-03-13 15:05:00,
2013-03-13 05:10:00,50.2,44.2,30.09,East,86,3.0,6.0,80,0.00,,,0.00,0.0,meteohub,2013-03-13 15:10:00,
2013-03-13 05:15:00,50.4,44.1,30.09,East,83,3.0,6.0,79,0.00,,,0.00,0.0,meteohub,2013-03-13 15:15:00,
2013-03-13 05:20:00,50.4,44.1,30.09,ENE,63,5.0,6.0,79,0.00,,,0.00,0.0,meteohub,2013-03-13 15:20:00,
2013-03-13 05:25:00,50.2,44.2,30.09,East,82,2.0,6.0,80,0.00,,,0.00,0.0,meteohub,2013-03-13 15:25:00,
2013-03-13 05:30:00,49.5,44.2,30.10,East,79,2.0,6.0,82,0.00,,,0.00,0.0,meteohub,2013-03-13 15:30:00,
2013-03-13 05:35:00,48.7,43.9,30.10,East,79,5.0,6.0,83,0.00,,,0.00,0.0,meteohub,2013-03-13 15:35:00,
2013-03-13 05:40:00,48.6,43.9,30.10,East,87,1.0,5.0,84,0.00,,,0.00,0.0,meteohub,2013-03-13 15:40:00,
2013-03-13 05:45:00,48.0,43.7,30.10,East,90,2.0,5.0,85,0.00,,,0.00,0.0,meteohub,2013-03-13 15:45:00,
2013-03-13 05:50:00,47.7,43.7,30.10,East,101,0.0,5.0,86,0.00,,,0.00,0.0,meteohub,2013-03-13 15:50:00,
2013-03-13 05:55:00,47.7,44.1,30.11,East,82,1.0,5.0,87,0.00,,,0.00,0.0,meteohub,2013-03-13 15:55:00,
2013-03-13 06:00:00,47.5,43.9,30.12,ENE,69,2.0,4.0,87,0.00,,,0.00,0.0,meteohub,2013-03-13 16:00:00,
2013-03-13 06:05:00,47.5,44.1,30.11,East,84,2.0,4.0,88,0.00,,,0.00,0.0,meteohub,2013-03-13 16:05:00,
2013-03-13 06:10:00,47.5,44.1,30.11,ENE,74,3.0,6.0,88,0.00,,,0.00,0.0,meteohub,2013-03-13 16:10:00,
2013-03-13 06:15:00,47.5,44.1,30.11,NE,50,3.0,6.0,88,0.00,,,0.00,0.0,meteohub,2013-03-13 16:15:00,
2013-03-13 06:20:00,47.1,43.7,30.11,ENE,69,3.0,6.0,88,0.00,,,0.00,0.0,meteohub,2013-03-13 16:20:00,
2013-03-13 06:25:00,47.7,44.1,30.10,ENE,73,3.0,6.0,87,0.00,,,0.00,0.0,meteohub,2013-03-13 16:25:00,
2013-03-13 06:30:00,48.4,44.1,30.10,ENE,75,5.0,6.0,85,0.00,,,0.00,0.0,meteohub,2013-03-13 16:30:00,
2013-03-13 06:35:00,48.9,44.1,30.10,East,84,2.0,6.0,83,0.00,,,0.00,0.0,meteohub,2013-03-13 16:35:00,
2013-03-13 06:40:00,49.5,44.2,30.11,ESE,105,3.0,6.0,82,0.00,,,0.00,7.0,meteohub,2013-03-13 16:40:00,
2013-03-13 06:45:00,49.1,44.2,30.11,ENE,71,2.0,6.0,83,0.00,,,0.00,9.0,meteohub,2013-03-13 16:45:00,
2013-03-13 06:50:00,48.6,43.9,30.11,ENE,78,2.0,6.0,84,0.00,,,0.00,12.0,meteohub,2013-03-13 16:50:00,
2013-03-13 06:56:00,48.6,44.2,30.11,East,86,5.0,5.0,85,0.00,,,0.00,14.0,meteohub,2013-03-13 16:56:00,
2013-03-13 07:01:00,48.7,44.4,30.12,East,88,2.0,5.0,85,0.00,,,0.00,16.0,meteohub,2013-03-13 17:01:00,
2013-03-13 07:06:00,49.3,44.6,30.12,ESE,111,2.0,5.0,84,0.00,,,0.00,18.0,meteohub,2013-03-13 17:06:00,
2013-03-13 07:11:00,49.5,44.8,30.12,ESE,123,3.0,5.0,84,0.00,,,0.00,19.0,meteohub,2013-03-13 17:11:00,
2013-03-13 07:16:00,49.8,44.8,30.12,ESE,112,2.0,7.0,83,0.00,,,0.00,21.0,meteohub,2013-03-13 17:16:00,
2013-03-13 07:21:00,49.3,44.6,30.13,East,85,2.0,7.0,84,0.00,,,0.00,23.0,meteohub,2013-03-13 17:21:00,
2013-03-13 07:26:00,49.3,45.0,30.13,East,96,2.0,7.0,85,0.00,,,0.00,25.0,meteohub,2013-03-13 17:26:00,
2013-03-13 07:31:00,48.7,44.8,30.13,East,81,2.0,4.0,86,0.00,,,0.00,25.0,meteohub,2013-03-13 17:31:00,
2013-03-13 07:36:00,48.6,44.8,30.13,East,96,1.0,3.0,87,0.00,,,0.00,26.0,meteohub,2013-03-13 17:36:00,
2013-03-13 07:41:00,48.4,45.0,30.13,East,85,1.0,3.0,88,0.00,,,0.00,28.0,meteohub,2013-03-13 17:41:00,
2013-03-13 07:46:00,48.6,45.1,30.13,East,87,1.0,4.0,88,0.00,,,0.00,30.0,meteohub,2013-03-13 17:46:00,
2013-03-13 07:51:00,48.9,45.5,30.14,East,86,2.0,4.0,88,0.00,,,0.00,32.0,meteohub,2013-03-13 17:51:00,
2013-03-13 07:57:00,49.3,45.9,30.13,East,87,1.0,4.0,88,0.00,,,0.00,33.0,meteohub,2013-03-13 17:57:00,
2013-03-13 08:02:00,49.8,46.4,30.13,East,82,3.0,5.0,88,0.00,,,0.00,35.0,meteohub,2013-03-13 18:02:00,
2013-03-13 08:07:00,51.3,47.3,30.13,ESE,103,1.0,5.0,86,0.00,,,0.00,37.0,meteohub,2013-03-13 18:07:00,
2013-03-13 08:12:00,51.6,47.3,30.14,ENE,75,0.0,3.0,85,0.00,,,0.00,118.0,meteohub,2013-03-13 18:12:00,
2013-03-13 08:17:00,52.3,48.6,30.14,East,98,1.0,3.0,87,0.00,,,0.00,290.0,meteohub,2013-03-13 18:17:00,
2013-03-13 08:22:00,53.1,48.9,30.14,East,97,0.0,3.0,86,0.00,,,0.00,299.0,meteohub,2013-03-13 18:22:00,
2013-03-13 08:27:00,53.8,49.6,30.15,East,98,0.0,2.0,86,0.00,,,0.00,315.0,meteohub,2013-03-13 18:27:00,
2013-03-13 08:32:00,54.7,50.5,30.14,East,97,0.0,1.0,86,0.00,,,0.00,330.0,meteohub,2013-03-13 18:32:00,
2013-03-13 08:37:00,55.4,52.0,30.15,East,98,0.0,1.0,88,0.00,,,0.00,350.0,meteohub,2013-03-13 18:37:00,
2013-03-13 08:42:00,56.7,53.1,30.16,SW,236,2.0,2.0,88,0.00,,,0.00,371.0,meteohub,2013-03-13 18:42:00,
2013-03-13 08:47:00,57.7,54.0,30.16,WSW,237,0.0,3.0,87,0.00,,,0.00,390.0,meteohub,2013-03-13 18:47:00,
2013-03-13 08:52:00,58.6,54.9,30.16,West,266,0.0,3.0,87,0.00,,,0.00,410.0,meteohub,2013-03-13 18:52:00,
2013-03-13 08:57:00,59.5,55.4,30.16,West,269,0.0,3.0,86,0.00,,,0.00,436.0,meteohub,2013-03-13 18:57:00,
2013-03-13 09:02:00,60.3,54.7,30.15,West,268,0.0,3.0,82,0.00,,,0.00,464.0,meteohub,2013-03-13 19:02:00,
2013-03-13 09:07:00,61.0,55.0,30.15,West,271,1.0,2.0,81,0.00,,,0.00,490.0,meteohub,2013-03-13 19:07:00,
2013-03-13 09:12:00,61.9,55.6,30.15,West,271,0.0,1.0,80,0.00,,,0.00,504.0,meteohub,2013-03-13 19:12:00,
2013-03-13 09:17:00,62.4,55.8,30.15,NW,306,1.0,1.0,79,0.00,,,0.00,526.0,meteohub,2013-03-13 19:17:00,
2013-03-13 09:22:00,62.6,54.5,30.14,West,270,0.0,4.0,75,0.00,,,0.00,541.0,meteohub,2013-03-13 19:22:00,
2013-03-13 09:27:00,62.8,54.7,30.14,WNW,288,0.0,4.0,75,0.00,,,0.00,561.0,meteohub,2013-03-13 19:27:00,
2013-03-13 09:32:00,63.5,55.8,30.14,WNW,289,0.0,2.0,76,0.00,,,0.00,580.0,meteohub,2013-03-13 19:32:00,
2013-03-13 09:37:00,63.9,56.5,30.14,WSW,243,3.0,3.0,77,0.00,,,0.00,598.0,meteohub,2013-03-13 19:37:00,
2013-03-13 09:43:00,63.7,57.0,30.14,WSW,257,0.0,4.0,79,0.00,,,0.00,617.0,meteohub,2013-03-13 19:43:00,
2013-03-13 09:48:00,63.5,56.8,30.14,WSW,250,2.0,4.0,79,0.00,,,0.00,633.0,meteohub,2013-03-13 19:48:00,
2013-03-13 09:53:00,63.3,56.7,30.14,SSW,196,0.0,4.0,79,0.00,,,0.00,649.0,meteohub,2013-03-13 19:53:00,
2013-03-13 09:58:00,63.5,57.2,30.14,West,265,0.0,4.0,80,0.00,,,0.00,663.0,meteohub,2013-03-13 19:58:00,
2013-03-13 10:03:00,63.5,57.2,30.14,WSW,243,0.0,5.0,80,0.00,,,0.00,684.0,meteohub,2013-03-13 20:03:00,
2013-03-13 10:08:00,63.9,57.6,30.14,West,261,0.0,5.0,80,0.00,,,0.00,744.0,meteohub,2013-03-13 20:08:00,
2013-03-13 10:13:00,63.9,57.6,30.14,SSW,211,0.0,5.0,80,0.00,,,0.00,707.0,meteohub,2013-03-13 20:13:00,
2013-03-13 10:18:00,63.7,57.7,30.15,West,277,0.0,4.0,81,0.00,,,0.00,346.0,meteohub,2013-03-13 20:18:00,
2013-03-13 10:23:00,63.7,57.7,30.14,WSW,250,2.0,4.0,81,0.00,,,0.00,287.0,meteohub,2013-03-13 20:23:00,
2013-03-13 10:28:00,63.9,57.9,30.14,SW,219,1.0,4.0,81,0.00,,,0.00,671.0,meteohub,2013-03-13 20:28:00,
2013-03-13 10:33:00,64.0,58.1,30.14,SW,234,5.0,5.0,81,0.00,,,0.00,577.0,meteohub,2013-03-13 20:33:00,
2013-03-13 10:38:00,63.7,58.5,30.14,SW,235,1.0,5.0,83,0.00,,,0.00,459.0,meteohub,2013-03-13 20:38:00,
2013-03-13 10:43:00,63.7,58.1,30.14,West,259,1.0,6.0,82,0.00,,,0.00,1058.0,meteohub,2013-03-13 20:43:00,
2013-03-13 10:48:00,63.3,58.1,30.14,West,265,0.0,6.0,83,0.00,,,0.00,640.0,meteohub,2013-03-13 20:48:00,
2013-03-13 10:53:00,63.7,58.5,30.13,WNW,294,2.0,6.0,83,0.00,,,0.00,338.0,meteohub,2013-03-13 20:53:00,
2013-03-13 10:58:00,63.7,58.5,30.13,NE,42,0.0,5.0,83,0.00,,,0.00,439.0,meteohub,2013-03-13 20:58:00,
2013-03-13 11:03:00,64.2,59.4,30.12,NW,311,2.0,4.0,84,0.00,,,0.00,555.0,meteohub,2013-03-13 21:03:00,
2013-03-13 11:08:00,65.1,59.5,30.12,WSW,239,0.0,4.0,82,0.00,,,0.00,912.0,meteohub,2013-03-13 21:08:00,
2013-03-13 11:13:00,65.1,58.5,30.12,NW,313,2.0,7.0,79,0.00,,,0.00,946.0,meteohub,2013-03-13 21:13:00,
2013-03-13 11:18:00,65.3,59.4,30.12,WSW,255,3.0,7.0,81,0.00,,,0.00,1069.0,meteohub,2013-03-13 21:18:00,
2013-03-13 11:23:00,65.8,59.9,30.12,WNW,286,4.0,7.0,81,0.00,,,0.00,504.0,meteohub,2013-03-13 21:23:00,
2013-03-13 11:28:00,65.8,59.5,30.12,West,269,0.0,8.0,80,0.00,,,0.00,278.0,meteohub,2013-03-13 21:28:00,
2013-03-13 11:33:00,65.3,60.1,30.11,NW,317,1.0,8.0,83,0.00,,,0.00,715.0,meteohub,2013-03-13 21:33:00,
2013-03-13 11:38:00,65.1,59.2,30.11,SW,223,0.0,7.0,81,0.00,,,0.00,381.0,meteohub,2013-03-13 21:38:00,
2013-03-13 11:43:00,65.3,59.4,30.11,NW,325,4.0,6.0,81,0.00,,,0.00,308.0,meteohub,2013-03-13 21:43:00,
2013-03-13 11:48:00,64.9,59.4,30.11,WSW,254,0.0,6.0,82,0.00,,,0.00,218.0,meteohub,2013-03-13 21:48:00,
2013-03-13 11:53:00,64.4,59.2,30.11,NW,319,6.0,7.0,83,0.00,,,0.00,378.0,meteohub,2013-03-13 21:53:00,
2013-03-13 11:58:00,64.4,59.5,30.11,WSW,242,2.0,7.0,84,0.00,,,0.00,1086.0,meteohub,2013-03-13 21:58:00,
2013-03-13 12:03:00,64.6,59.0,30.11,NW,313,2.0,7.0,82,0.00,,,0.00,355.0,meteohub,2013-03-13 22:03:00,
2013-03-13 12:08:00,64.8,59.2,30.11,WNW,302,4.0,7.0,82,0.00,,,0.00,436.0,meteohub,2013-03-13 22:08:00,
2013-03-13 12:13:00,64.6,59.0,30.11,WSW,247,0.0,6.0,82,0.00,,,0.00,615.0,meteohub,2013-03-13 22:13:00,
2013-03-13 12:18:00,64.9,59.4,30.10,SW,236,2.0,6.0,82,0.00,,,0.00,420.0,meteohub,2013-03-13 22:18:00,
2013-03-13 12:23:00,64.6,58.6,30.10,WSW,246,5.0,8.0,81,0.00,,,0.00,490.0,meteohub,2013-03-13 22:23:00,
2013-03-13 12:29:00,64.9,59.0,30.09,West,262,6.0,9.0,81,0.00,,,0.00,490.0,meteohub,2013-03-13 22:29:00,
2013-03-13 12:34:00,65.7,59.4,30.09,WNW,287,6.0,9.0,80,0.00,,,0.00,473.0,meteohub,2013-03-13 22:34:00,
2013-03-13 12:39:00,65.8,59.2,30.09,West,261,3.0,9.0,79,0.00,,,0.00,285.0,meteohub,2013-03-13 22:39:00,
2013-03-13 12:44:00,64.9,58.6,30.09,WNW,287,3.0,11.0,80,0.00,,,0.00,234.0,meteohub,2013-03-13 22:44:00,
2013-03-13 12:49:00,64.2,58.3,30.09,SW,234,0.0,11.0,81,0.00,,,0.00,262.0,meteohub,2013-03-13 22:49:00,
2013-03-13 12:54:00,64.0,58.8,30.09,SSW,202,4.0,11.0,83,0.00,,,0.00,306.0,meteohub,2013-03-13 22:54:00,
2013-03-13 12:59:00,64.0,58.5,30.08,West,259,1.0,8.0,82,0.03,,,0.03,243.0,meteohub,2013-03-13 22:59:00,
2013-03-13 13:04:00,64.0,58.1,30.08,WSW,242,2.0,8.0,81,0.03,,,0.03,265.0,meteohub,2013-03-13 23:04:00,
2013-03-13 13:09:00,63.7,58.8,30.08,WSW,253,5.0,9.0,84,0.03,,,0.03,1373.0,meteohub,2013-03-13 23:09:00,
2013-03-13 13:14:00,63.9,58.3,30.07,West,263,1.0,9.0,82,0.03,,,0.03,223.0,meteohub,2013-03-13 23:14:00,
2013-03-13 13:19:00,63.7,57.4,30.08,WSW,243,6.0,9.0,80,0.03,,,0.03,236.0,meteohub,2013-03-13 23:19:00,
2013-03-13 13:24:00,63.1,57.6,30.08,WSW,248,0.0,8.0,82,0.03,,,0.03,262.0,meteohub,2013-03-13 23:24:00,
2013-03-13 13:29:00,63.0,57.7,30.08,WSW,243,1.0,9.0,83,0.03,,,0.03,174.0,meteohub,2013-03-13 23:29:00,
2013-03-13 13:34:00,62.8,57.6,30.08,West,266,6.0,10.0,83,0.03,,,0.03,288.0,meteohub,2013-03-13 23:34:00,
2013-03-13 13:39:00,62.8,57.9,30.08,WSW,253,2.0,10.0,84,0.03,,,0.03,352.0,meteohub,2013-03-13 23:39:00,
2013-03-13 13:44:00,62.8,57.6,30.08,West,273,0.0,10.0,83,0.03,,,0.03,367.0,meteohub,2013-03-13 23:44:00,
2013-03-13 13:49:00,63.0,57.7,30.08,WNW,300,0.0,7.0,83,0.03,,,0.03,204.0,meteohub,2013-03-13 23:49:00,
2013-03-13 13:54:00,62.8,57.6,30.08,WNW,296,2.0,10.0,83,0.00,,,0.03,225.0,meteohub,2013-03-13 23:54:00,
2013-03-13 13:59:00,62.8,57.9,30.08,SW,235,5.0,10.0,84,0.00,,,0.03,403.0,meteohub,2013-03-13 23:59:00,
2013-03-13 14:04:00,63.0,58.1,30.08,WSW,249,3.0,10.0,84,0.00,,,0.03,404.0,meteohub,2013-03-14 00:04:00,
2013-03-13 14:09:00,63.0,58.1,30.07,West,270,1.0,9.0,84,0.00,,,0.00,218.0,meteohub,2013-03-14 00:09:00,
2013-03-13 14:14:00,62.8,57.9,30.07,NW,311,3.0,7.0,84,0.00,,,0.00,260.0,meteohub,2013-03-14 00:14:00,
2013-03-13 14:19:00,62.8,57.9,30.07,West,279,0.0,9.0,84,0.00,,,0.00,294.0,meteohub,2013-03-14 00:19:00,
2013-03-13 14:24:00,63.0,57.7,30.06,West,279,0.0,9.0,83,0.00,,,0.00,383.0,meteohub,2013-03-14 00:24:00,
2013-03-13 14:29:00,63.7,58.1,30.06,NW,320,3.0,9.0,82,0.00,,,0.00,366.0,meteohub,2013-03-14 00:29:00,
2013-03-13 14:34:00,63.9,57.9,30.06,West,278,3.0,7.0,81,0.00,,,0.00,415.0,meteohub,2013-03-14 00:34:00,
2013-03-13 14:39:00,64.2,57.9,30.06,WNW,294,7.0,7.0,80,0.00,,,0.00,534.0,meteohub,2013-03-14 00:39:00,
2013-03-13 14:44:00,64.9,58.6,30.06,WNW,282,4.0,6.0,80,0.00,,,0.00,622.0,meteohub,2013-03-14 00:44:00,
2013-03-13 14:49:00,65.8,59.2,30.06,NW,311,3.0,7.0,79,0.00,,,0.00,1209.0,meteohub,2013-03-14 00:49:00,
2013-03-13 14:54:00,66.6,59.2,30.06,West,266,3.0,7.0,77,0.00,,,0.00,1148.0,meteohub,2013-03-14 00:54:00,
2013-03-13 14:59:00,66.0,58.3,30.06,NW,320,0.0,9.0,76,0.00,,,0.00,960.0,meteohub,2013-03-14 00:59:00,
2013-03-13 15:04:00,66.0,58.6,30.06,NW,318,3.0,10.0,77,0.00,,,0.00,564.0,meteohub,2013-03-14 01:04:00,
2013-03-13 15:09:00,66.0,59.0,30.06,NW,313,3.0,10.0,78,0.00,,,0.00,292.0,meteohub,2013-03-14 01:09:00,
2013-03-13 15:14:00,65.7,58.6,30.05,NW,323,2.0,8.0,78,0.00,,,0.00,388.0,meteohub,2013-03-14 01:14:00,
2013-03-13 15:19:00,65.7,58.6,30.06,WNW,297,7.0,8.0,78,0.00,,,0.00,329.0,meteohub,2013-03-14 01:19:00,
2013-03-13 15:24:00,65.1,58.5,30.06,SW,231,5.0,12.0,79,0.00,,,0.00,323.0,meteohub,2013-03-14 01:24:00,
2013-03-13 15:29:00,64.2,58.3,30.05,NNW,333,5.0,12.0,81,0.00,,,0.00,229.0,meteohub,2013-03-14 01:29:00,
2013-03-13 15:34:00,63.9,57.9,30.05,WSW,238,2.0,8.0,81,0.00,,,0.00,193.0,meteohub,2013-03-14 01:34:00,
2013-03-13 15:39:00,63.5,57.6,30.05,SW,225,1.0,8.0,81,0.00,,,0.00,188.0,meteohub,2013-03-14 01:39:00,
2013-03-13 15:44:00,63.1,57.6,30.05,WNW,297,2.0,8.0,82,0.00,,,0.00,151.0,meteohub,2013-03-14 01:44:00,
2013-03-13 15:49:00,63.0,57.4,30.05,West,261,0.0,4.0,82,0.00,,,0.00,190.0,meteohub,2013-03-14 01:49:00,
2013-03-13 15:54:00,63.0,57.4,30.05,West,265,2.0,4.0,82,0.00,,,0.00,276.0,meteohub,2013-03-14 01:54:00,
2013-03-13 15:59:00,63.1,57.9,30.05,NW,306,3.0,6.0,83,0.00,,,0.00,237.0,meteohub,2013-03-14 01:59:00,
2013-03-13 16:04:00,63.1,57.9,30.05,WNW,286,2.0,6.0,83,0.00,,,0.00,211.0,meteohub,2013-03-14 02:04:00,
2013-03-13 16:09:00,62.6,57.7,30.05,NW,307,2.0,7.0,84,0.00,,,0.00,267.0,meteohub,2013-03-14 02:09:00,
2013-03-13 16:14:00,62.4,57.6,30.05,West,280,1.0,7.0,84,0.00,,,0.00,213.0,meteohub,2013-03-14 02:14:00,
2013-03-13 16:19:00,62.8,57.9,30.06,WNW,291,0.0,7.0,84,0.00,,,0.00,306.0,meteohub,2013-03-14 02:19:00,
2013-03-13 16:24:00,63.3,58.5,30.05,WSW,251,5.0,7.0,84,0.00,,,0.00,459.0,meteohub,2013-03-14 02:24:00,
2013-03-13 16:29:00,63.7,58.1,30.06,West,281,5.0,7.0,82,0.00,,,0.00,172.0,meteohub,2013-03-14 02:29:00,
2013-03-13 16:34:00,63.3,57.7,30.06,SW,235,1.0,8.0,82,0.00,,,0.00,153.0,meteohub,2013-03-14 02:34:00,
2013-03-13 16:39:00,63.0,57.7,30.06,NNW,337,0.0,8.0,83,0.00,,,0.00,195.0,meteohub,2013-03-14 02:39:00,
2013-03-13 16:44:00,63.0,57.7,30.05,WNW,282,2.0,8.0,83,0.00,,,0.00,234.0,meteohub,2013-03-14 02:44:00,
2013-03-13 16:49:00,63.1,57.6,30.06,WSW,257,0.0,5.0,82,0.00,,,0.00,292.0,meteohub,2013-03-14 02:49:00,
2013-03-13 16:54:00,63.1,57.9,30.06,SW,226,2.0,6.0,83,0.00,,,0.00,135.0,meteohub,2013-03-14 02:54:00,
2013-03-13 16:59:00,62.8,57.6,30.06,SW,219,0.0,6.0,83,0.00,,,0.00,132.0,meteohub,2013-03-14 02:59:00,
2013-03-13 17:04:00,62.6,57.7,30.06,West,274,5.0,6.0,84,0.00,,,0.00,165.0,meteohub,2013-03-14 03:04:00,
2013-03-13 17:10:00,62.8,57.9,30.06,SW,231,0.0,6.0,84,0.00,,,0.00,155.0,meteohub,2013-03-14 03:10:00,
2013-03-13 17:14:00,62.8,57.9,30.06,NW,317,0.0,6.0,84,0.00,,,0.00,172.0,meteohub,2013-03-14 03:14:00,
2013-03-13 17:19:00,62.8,57.9,30.07,WNW,293,3.0,5.0,84,0.00,,,0.00,132.0,meteohub,2013-03-14 03:19:00,
2013-03-13 17:24:00,62.2,57.7,30.06,WSW,251,2.0,4.0,85,0.00,,,0.00,167.0,meteohub,2013-03-14 03:24:00,
2013-03-13 17:30:00,61.9,57.4,30.06,SW,231,1.0,5.0,85,0.00,,,0.00,234.0,meteohub,2013-03-14 03:30:00,
2013-03-13 17:35:00,61.7,57.4,30.06,WNW,285,0.0,5.0,86,0.00,,,0.00,269.0,meteohub,2013-03-14 03:35:00,
2013-03-13 17:40:00,61.9,57.6,30.06,West,280,1.0,5.0,86,0.00,,,0.00,239.0,meteohub,2013-03-14 03:40:00,
2013-03-13 17:45:00,62.2,57.7,30.06,WNW,300,0.0,4.0,85,0.00,,,0.00,279.0,meteohub,2013-03-14 03:45:00,
2013-03-13 17:50:00,62.6,57.7,30.06,WSW,258,3.0,4.0,84,0.00,,,0.00,232.0,meteohub,2013-03-14 03:50:00,
2013-03-13 17:55:00,62.4,57.6,30.07,WSW,254,0.0,6.0,84,0.00,,,0.00,76.0,meteohub,2013-03-14 03:55:00,
2013-03-13 18:00:00,61.9,57.6,30.07,WNW,288,4.0,6.0,86,0.00,,,0.00,84.0,meteohub,2013-03-14 04:00:00,
2013-03-13 18:05:00,61.3,57.4,30.08,West,275,1.0,6.0,87,0.00,,,0.00,40.0,meteohub,2013-03-14 04:05:00,
2013-03-13 18:10:00,60.6,57.0,30.08,West,277,1.0,6.0,88,0.00,,,0.00,25.0,meteohub,2013-03-14 04:10:00,
2013-03-13 18:15:00,60.3,57.0,30.09,West,259,0.0,6.0,89,0.00,,,0.00,19.0,meteohub,2013-03-14 04:15:00,
2013-03-13 18:20:00,59.9,57.0,30.09,West,261,0.0,3.0,90,0.00,,,0.00,12.0,meteohub,2013-03-14 04:20:00,
2013-03-13 18:25:00,59.5,56.7,30.09,West,260,0.0,3.0,90,0.00,,,0.00,7.0,meteohub,2013-03-14 04:25:00,
2013-03-13 18:30:00,59.2,56.5,30.09,West,263,0.0,2.0,91,0.00,,,0.00,0.0,meteohub,2013-03-14 04:30:00,
2013-03-13 18:35:00,58.6,56.3,30.10,North,0,0.0,2.0,92,0.00,,,0.00,0.0,meteohub,2013-03-14 04:35:00,
2013-03-13 18:40:00,58.5,56.5,30.09,West,271,0.0,3.0,93,0.00,,,0.00,0.0,meteohub,2013-03-14 04:40:00,
2013-03-13 18:45:00,58.3,56.5,30.09,West,269,0.0,3.0,94,0.00,,,0.00,0.0,meteohub,2013-03-14 04:45:00,
2013-03-13 18:50:00,57.9,56.1,30.09,West,270,0.0,3.0,94,0.00,,,0.00,0.0,meteohub,2013-03-14 04:50:00,
2013-03-13 18:55:00,57.9,56.1,30.09,West,269,0.0,1.0,94,0.00,,,0.00,0.0,meteohub,2013-03-14 04:55:00,
2013-03-13 19:00:00,57.7,55.9,30.09,West,271,0.0,1.0,94,0.00,,,0.00,0.0,meteohub,2013-03-14 05:00:00,
2013-03-13 19:05:00,57.6,55.8,30.09,West,269,0.0,1.0,94,0.00,,,0.00,0.0,meteohub,2013-03-14 05:05:00,
2013-03-13 19:10:00,57.6,55.8,30.09,West,270,0.0,1.0,94,0.00,,,0.00,0.0,meteohub,2013-03-14 05:10:00,
2013-03-13 19:15:00,57.4,55.6,30.10,West,270,0.0,0.0,94,0.00,,,0.00,0.0,meteohub,2013-03-14 05:15:00,
2013-03-13 19:20:00,57.4,55.9,30.10,West,271,0.0,0.0,95,0.00,,,0.00,0.0,meteohub,2013-03-14 05:20:00,
2013-03-13 19:25:00,57.0,55.6,30.10,West,269,0.0,1.0,95,0.00,,,0.00,0.0,meteohub,2013-03-14 05:25:00,
2013-03-13 19:30:00,57.0,55.6,30.11,West,269,0.0,1.0,95,0.00,,,0.00,0.0,meteohub,2013-03-14 05:30:00,
2013-03-13 19:35:00,56.7,55.0,30.10,West,271,0.0,1.0,94,0.00,,,0.00,0.0,meteohub,2013-03-14 05:35:00,
2013-03-13 19:40:00,56.1,54.1,30.11,West,269,0.0,1.0,93,0.00,,,0.00,0.0,meteohub,2013-03-14 05:40:00,
2013-03-13 19:45:00,55.9,54.0,30.11,West,271,0.0,1.0,93,0.00,,,0.00,0.0,meteohub,2013-03-14 05:45:00,
2013-03-13 19:50:00,55.6,53.2,30.12,West,270,1.0,1.0,92,0.00,,,0.00,0.0,meteohub,2013-03-14 05:50:00,
2013-03-13 19:55:00,55.0,52.7,30.12,SSE,148,0.0,2.0,92,0.00,,,0.00,0.0,meteohub,2013-03-14 05:55:00,
2013-03-13 20:00:00,54.7,52.3,30.12,East,81,1.0,3.0,92,0.00,,,0.00,0.0,meteohub,2013-03-14 06:00:00,
2013-03-13 20:05:00,54.3,52.0,30.12,East,90,1.0,3.0,92,0.00,,,0.00,0.0,meteohub,2013-03-14 06:05:00,
2013-03-13 20:10:00,54.1,51.6,30.12,East,86,1.0,3.0,91,0.00,,,0.00,0.0,meteohub,2013-03-14 06:10:00,
2013-03-13 20:15:00,53.8,50.4,30.12,East,101,0.0,3.0,88,0.00,,,0.00,0.0,meteohub,2013-03-14 06:15:00,
2013-03-13 20:20:00,53.2,49.8,30.12,East,101,1.0,3.0,88,0.00,,,0.00,0.0,meteohub,2013-03-14 06:20:00,
2013-03-13 20:25:00,52.7,49.5,30.12,East,101,0.0,2.0,89,0.00,,,0.00,0.0,meteohub,2013-03-14 06:25:00,
2013-03-13 20:30:00,52.3,49.5,30.13,East,98,0.0,2.0,90,0.00,,,0.00,0.0,meteohub,2013-03-14 06:30:00,
2013-03-13 20:35:00,52.0,49.5,30.13,East,98,2.0,2.0,91,0.00,,,0.00,0.0,meteohub,2013-03-14 06:35:00,
2013-03-13 20:41:00,51.6,49.5,30.13,East,97,2.0,2.0,92,0.00,,,0.00,0.0,meteohub,2013-03-14 06:41:00,
2013-03-13 20:46:00,51.4,48.9,30.13,East,98,1.0,2.0,91,0.00,,,0.00,0.0,meteohub,2013-03-14 06:46:00,
2013-03-13 20:51:00,51.1,48.6,30.12,East,88,0.0,3.0,91,0.00,,,0.00,0.0,meteohub,2013-03-14 06:51:00,
2013-03-13 20:56:00,50.7,48.6,30.12,East,88,0.0,3.0,92,0.00,,,0.00,0.0,meteohub,2013-03-14 06:56:00,
2013-03-13 21:01:00,50.7,48.6,30.12,East,86,0.0,3.0,92,0.00,,,0.00,0.0,meteohub,2013-03-14 07:01:00,
2013-03-13 21:06:00,50.7,48.2,30.12,East,88,0.0,2.0,91,0.00,,,0.00,0.0,meteohub,2013-03-14 07:06:00,
2013-03-13 21:11:00,51.1,48.2,30.12,East,88,0.0,1.0,90,0.00,,,0.00,0.0,meteohub,2013-03-14 07:11:00,
2013-03-13 21:16:00,51.4,48.6,30.13,East,88,0.0,1.0,90,0.00,,,0.00,0.0,meteohub,2013-03-14 07:16:00,
2013-03-13 21:21:00,51.4,48.6,30.13,East,88,0.0,2.0,90,0.00,,,0.00,0.0,meteohub,2013-03-14 07:21:00,
2013-03-13 21:26:00,51.4,48.9,30.13,East,86,1.0,2.0,91,0.00,,,0.00,0.0,meteohub,2013-03-14 07:26:00,
2013-03-13 21:31:00,51.3,48.7,30.14,East,90,0.0,2.0,91,0.00,,,0.00,0.0,meteohub,2013-03-14 07:31:00,
2013-03-13 21:36:00,51.3,48.7,30.13,East,88,1.0,3.0,91,0.00,,,0.00,0.0,meteohub,2013-03-14 07:36:00,
2013-03-13 21:41:00,50.9,48.0,30.13,East,88,0.0,3.0,90,0.00,,,0.00,0.0,meteohub,2013-03-14 07:41:00,
2013-03-13 21:46:00,50.5,47.5,30.13,East,88,0.0,3.0,89,0.00,,,0.00,0.0,meteohub,2013-03-14 07:46:00,
2013-03-13 21:51:00,50.4,47.5,30.13,East,88,2.0,3.0,90,0.00,,,0.00,0.0,meteohub,2013-03-14 07:51:00,
2013-03-13 21:56:00,50.2,47.3,30.13,East,88,2.0,3.0,90,0.00,,,0.00,0.0,meteohub,2013-03-14 07:56:00,
2013-03-13 22:01:00,49.8,46.9,30.14,East,86,2.0,3.0,90,0.00,,,0.00,0.0,meteohub,2013-03-14 08:01:00,
2013-03-13 22:06:00,50.0,47.5,30.14,East,87,2.0,3.0,91,0.00,,,0.00,0.0,meteohub,2013-03-14 08:06:00,
2013-03-13 22:11:00,50.5,48.6,30.15,East,88,1.0,3.0,93,0.00,,,0.00,0.0,meteohub,2013-03-14 08:11:00,
2013-03-13 22:16:00,51.1,49.5,30.15,East,88,0.0,3.0,94,0.00,,,0.00,0.0,meteohub,2013-03-14 08:16:00,
2013-03-13 22:22:00,51.4,49.3,30.15,East,87,2.0,3.0,92,0.00,,,0.00,0.0,meteohub,2013-03-14 08:22:00,
2013-03-13 22:27:00,51.8,49.6,30.15,East,86,0.0,3.0,92,0.00,,,0.00,0.0,meteohub,2013-03-14 08:27:00,
2013-03-13 22:32:00,52.2,49.8,30.15,East,86,1.0,2.0,92,0.00,,,0.00,0.0,meteohub,2013-03-14 08:32:00,
2013-03-13 22:37:00,52.3,50.0,30.14,East,86,1.0,2.0,92,0.00,,,0.00,0.0,meteohub,2013-03-14 08:37:00,
2013-03-13 22:42:00,52.2,49.6,30.14,East,88,0.0,2.0,91,0.00,,,0.00,0.0,meteohub,2013-03-14 08:42:00,
2013-03-13 22:47:00,52.0,49.1,30.14,East,87,0.0,2.0,90,0.00,,,0.00,0.0,meteohub,2013-03-14 08:47:00,
2013-03-13 22:52:00,51.3,47.8,30.14,ESE,109,1.0,3.0,88,0.00,,,0.00,0.0,meteohub,2013-03-14 08:52:00,
2013-03-13 22:57:00,51.1,48.6,30.14,ESE,108,0.0,3.0,91,0.00,,,0.00,0.0,meteohub,2013-03-14 08:57:00,
2013-03-13 23:02:00,50.7,47.7,30.14,ESE,104,2.0,3.0,89,0.00,,,0.00,0.0,meteohub,2013-03-14 09:02:00,
2013-03-13 23:07:00,50.5,47.7,30.14,ESE,102,0.0,3.0,90,0.00,,,0.00,0.0,meteohub,2013-03-14 09:07:00,
2013-03-13 23:12:00,50.4,47.3,30.14,East,95,2.0,2.0,89,0.00,,,0.00,0.0,meteohub,2013-03-14 09:12:00,
2013-03-13 23:17:00,49.8,46.8,30.14,East,85,1.0,3.0,89,0.00,,,0.00,0.0,meteohub,2013-03-14 09:17:00,
2013-03-13 23:22:00,49.6,46.8,30.14,East,91,1.0,3.0,90,0.00,,,0.00,0.0,meteohub,2013-03-14 09:22:00,
2013-03-13 23:27:00,49.5,47.3,30.15,ESE,112,1.0,3.0,92,0.00,,,0.00,0.0,meteohub,2013-03-14 09:27:00,
2013-03-13 23:32:00,49.5,47.3,30.15,East,86,2.0,5.0,92,0.00,,,0.00,0.0,meteohub,2013-03-14 09:32:00,
2013-03-13 23:37:00,49.5,46.9,30.15,East,79,2.0,5.0,91,0.00,,,0.00,0.0,meteohub,2013-03-14 09:37:00,
2013-03-13 23:42:00,49.3,46.4,30.14,ENE,78,2.0,5.0,90,0.00,,,0.00,0.0,meteohub,2013-03-14 09:42:00,
2013-03-13 23:47:00,48.9,46.4,30.14,East,79,0.0,3.0,91,0.00,,,0.00,0.0,meteohub,2013-03-14 09:47:00,
2013-03-13 23:52:00,48.7,46.2,30.14,East,85,1.0,3.0,91,0.00,,,0.00,0.0,meteohub,2013-03-14 09:52:00,
2013-03-13 23:57:00,48.4,46.2,30.14,East,92,2.0,3.0,92,0.00,,,0.00,0.0,meteohub,2013-03-14 09:57:00,